JLY1253 SBSR-SBCY

Flight info

Callsign JLY1253
Flight time 1h 17m
Altitude 40000
Route ASDOV DCT RODAD DCT SINIP
Aircraft B38M/M-SDE1FGHILORVWXY/HB1

Departure

Time 2026-04-17 12:14
Airport Prof. Eribelto Manoel Reino State Airport (SBSR)

Arrival

Time 2026-04-17 13:32
Airport Várzea Grande–Marechal Rondon International Airport (SBCY)
Time Latitude Longitude Altitude Speed Heading
2026-04-17 12:02 -20.81260 -49.40390 1759 ft 0 kts 321°
2026-04-17 12:05 -20.81261 -49.40389 1759 ft 1 kts 321°
2026-04-17 12:06 -20.81272 -49.40379 1769 ft 3 kts 318°
2026-04-17 12:06 -20.81287 -49.40365 1762 ft 3 kts 314°
2026-04-17 12:06 -20.81300 -49.40348 1765 ft 3 kts 306°
2026-04-17 12:06 -20.81310 -49.40330 1766 ft 3 kts 288°
2026-04-17 12:07 -20.81312 -49.40312 1763 ft 3 kts 248°
2026-04-17 12:07 -20.81309 -49.40305 1764 ft 0 kts 231°
2026-04-17 12:09 -20.81310 -49.40306 1762 ft 1 kts 231°
2026-04-17 12:09 -20.81320 -49.40319 1762 ft 4 kts 231°
2026-04-17 12:09 -20.81344 -49.40352 1764 ft 7 kts 231°
2026-04-17 12:10 -20.81383 -49.40403 1765 ft 10 kts 229°
2026-04-17 12:10 -20.81436 -49.40470 1762 ft 13 kts 231°
2026-04-17 12:10 -20.81499 -49.40555 1761 ft 16 kts 232°
2026-04-17 12:10 -20.81546 -49.40614 1763 ft 3 kts 200°
2026-04-17 12:11 -20.81568 -49.40608 1761 ft 6 kts 154°
2026-04-17 12:11 -20.81638 -49.40597 1760 ft 15 kts 226°
2026-04-17 12:11 -20.81723 -49.40711 1761 ft 24 kts 231°
2026-04-17 12:12 -20.81962 -49.41030 1764 ft 29 kts 231°
2026-04-17 12:12 -20.82071 -49.41176 1762 ft 18 kts 231°
2026-04-17 12:12 -20.82119 -49.41274 1764 ft 9 kts 264°
2026-04-17 12:12 -20.82122 -49.41277 1763 ft 0 kts 227°
2026-04-17 12:13 -20.82126 -49.41276 1762 ft 1 kts 179°
2026-04-17 12:13 -20.82131 -49.41267 1765 ft 3 kts 114°
2026-04-17 12:13 -20.82119 -49.41240 1762 ft 6 kts 53°
2026-04-17 12:13 -20.82111 -49.41229 1762 ft 0 kts 52°
2026-04-17 12:14 -20.82091 -49.41202 1761 ft 30 kts 52°
2026-04-17 12:14 -20.81765 -49.40766 1763 ft 119 kts 51°
2026-04-17 12:14 -20.81103 -49.39883 1901 ft 173 kts 49°
2026-04-17 12:14 -20.80322 -49.38911 2893 ft 169 kts 50°
2026-04-17 12:15 -20.79587 -49.37936 3797 ft 177 kts 50°
2026-04-17 12:15 -20.78713 -49.36863 4353 ft 206 kts 38°
2026-04-17 12:15 -20.77277 -49.36330 4842 ft 240 kts 356°
2026-04-17 12:15 -20.75668 -49.37013 5527 ft 267 kts 319°
2026-04-17 12:16 -20.74789 -49.38728 6747 ft 268 kts 280°
2026-04-17 12:16 -20.74904 -49.40739 7841 ft 278 kts 260°
2026-04-17 12:16 -20.74904 -49.42822 8916 ft 287 kts 286°
2026-04-17 12:16 -20.73880 -49.44654 10071 ft 294 kts 310°
2026-04-17 12:17 -20.72514 -49.46353 10834 ft 310 kts 308°
2026-04-17 12:17 -20.71112 -49.48203 11414 ft 331 kts 307°
2026-04-17 12:17 -20.69633 -49.50173 12025 ft 348 kts 307°
2026-04-17 12:17 -20.68102 -49.52224 12769 ft 357 kts 307°
2026-04-17 12:18 -20.66554 -49.54304 13779 ft 358 kts 306°
2026-04-17 12:18 -20.64993 -49.56402 14565 ft 363 kts 306°
2026-04-17 12:18 -20.63414 -49.58525 15348 ft 367 kts 306°
2026-04-17 12:18 -20.61821 -49.60666 16125 ft 370 kts 306°
2026-04-17 12:19 -20.60212 -49.62829 16863 ft 374 kts 306°
2026-04-17 12:19 -20.58605 -49.64987 17555 ft 378 kts 307°
2026-04-17 12:19 -20.56959 -49.67198 18257 ft 382 kts 307°
2026-04-17 12:19 -20.55277 -49.69456 18862 ft 385 kts 307°
2026-04-17 12:20 -20.53601 -49.71704 19434 ft 389 kts 307°
2026-04-17 12:20 -20.51932 -49.73943 20002 ft 392 kts 307°
2026-04-17 12:20 -20.50229 -49.76227 20580 ft 395 kts 307°
2026-04-17 12:20 -20.48509 -49.78532 21158 ft 398 kts 307°
2026-04-17 12:21 -20.46777 -49.80853 21709 ft 401 kts 307°
2026-04-17 12:21 -20.45033 -49.83189 22269 ft 405 kts 307°
2026-04-17 12:21 -20.43272 -49.85545 22800 ft 408 kts 307°
2026-04-17 12:21 -20.41499 -49.87919 23331 ft 411 kts 307°
2026-04-17 12:22 -20.39706 -49.90317 23728 ft 416 kts 307°
2026-04-17 12:22 -20.37894 -49.92739 24174 ft 418 kts 307°
2026-04-17 12:22 -20.36077 -49.95168 24646 ft 420 kts 307°
2026-04-17 12:22 -20.34252 -49.97605 25098 ft 422 kts 306°
2026-04-17 12:23 -20.32419 -50.00053 25568 ft 423 kts 306°
2026-04-17 12:23 -20.30577 -50.02511 26028 ft 425 kts 306°
2026-04-17 12:23 -20.28728 -50.04978 26474 ft 428 kts 306°
2026-04-17 12:23 -20.26867 -50.07461 26926 ft 430 kts 306°
2026-04-17 12:24 -20.24997 -50.09954 27358 ft 432 kts 306°
2026-04-17 12:24 -20.23116 -50.12459 27797 ft 434 kts 306°
2026-04-17 12:24 -20.21225 -50.14979 28211 ft 437 kts 306°
2026-04-17 12:24 -20.19321 -50.17513 28614 ft 439 kts 306°
2026-04-17 12:25 -20.17408 -50.20059 29035 ft 441 kts 306°
2026-04-17 12:25 -20.15483 -50.22619 29439 ft 444 kts 306°
2026-04-17 12:25 -20.13550 -50.25190 29841 ft 446 kts 306°
2026-04-17 12:25 -20.11599 -50.27765 30194 ft 449 kts 307°
2026-04-17 12:26 -20.09458 -50.30208 30532 ft 452 kts 309°
2026-04-17 12:26 -20.07307 -50.32651 30882 ft 453 kts 309°
2026-04-17 12:26 -20.05160 -50.35114 31213 ft 455 kts 308°
2026-04-17 12:26 -20.03009 -50.37591 31543 ft 457 kts 308°
2026-04-17 12:27 -20.00854 -50.40074 31906 ft 457 kts 308°
2026-04-17 12:27 -19.98699 -50.42558 32356 ft 456 kts 308°
2026-04-17 12:27 -19.96554 -50.45028 32805 ft 454 kts 307°
2026-04-17 12:27 -19.94418 -50.47487 33269 ft 452 kts 307°
2026-04-17 12:28 -19.92289 -50.49936 33732 ft 450 kts 307°
2026-04-17 12:28 -19.90198 -50.52341 34151 ft 448 kts 307°
2026-04-17 12:28 -19.88088 -50.54766 34539 ft 446 kts 307°
2026-04-17 12:28 -19.85987 -50.57181 34938 ft 444 kts 307°
2026-04-17 12:29 -19.83893 -50.59585 35329 ft 442 kts 307°
2026-04-17 12:29 -19.81814 -50.61971 35778 ft 438 kts 307°
2026-04-17 12:29 -19.79751 -50.64340 36216 ft 436 kts 307°
2026-04-17 12:29 -19.77698 -50.66696 36638 ft 433 kts 307°
2026-04-17 12:30 -19.75658 -50.69035 37059 ft 431 kts 307°
2026-04-17 12:30 -19.73626 -50.71364 37455 ft 429 kts 307°
2026-04-17 12:30 -19.71604 -50.73681 37841 ft 427 kts 307°
2026-04-17 12:30 -19.69592 -50.75986 38217 ft 425 kts 307°
2026-04-17 12:31 -19.67589 -50.78280 38583 ft 423 kts 307°
2026-04-17 12:31 -19.65593 -50.80565 38875 ft 421 kts 306°
2026-04-17 12:31 -19.63601 -50.82843 39121 ft 421 kts 306°
2026-04-17 12:31 -19.61611 -50.85120 39306 ft 422 kts 307°
2026-04-17 12:32 -19.59605 -50.87413 39332 ft 427 kts 307°
2026-04-17 12:32 -19.57586 -50.89720 39539 ft 426 kts 307°
2026-04-17 12:32 -19.55569 -50.92024 39754 ft 426 kts 307°
2026-04-17 12:32 -19.53553 -50.94326 39915 ft 426 kts 307°
2026-04-17 12:33 -19.51535 -50.96629 39945 ft 426 kts 307°
2026-04-17 12:33 -19.47514 -51.01215 39938 ft 424 kts 307°
2026-04-17 12:34 -19.43500 -51.05791 39937 ft 424 kts 307°
2026-04-17 12:34 -19.39494 -51.10354 39932 ft 428 kts 307°
2026-04-17 12:35 -19.35422 -51.14988 39940 ft 430 kts 307°
2026-04-17 12:35 -19.31352 -51.19616 39939 ft 429 kts 307°
2026-04-17 12:37 -19.15039 -51.38132 39942 ft 431 kts 307°
2026-04-17 12:38 -19.10950 -51.42762 39944 ft 431 kts 307°
2026-04-17 12:38 -19.06857 -51.47394 39943 ft 431 kts 307°
2026-04-17 12:39 -19.02764 -51.52024 39944 ft 431 kts 307°
2026-04-17 12:39 -18.98664 -51.56658 39941 ft 432 kts 307°
2026-04-17 12:40 -18.94555 -51.61298 39949 ft 432 kts 307°
2026-04-17 12:40 -18.90447 -51.65933 39953 ft 432 kts 307°
2026-04-17 12:41 -18.86337 -51.70566 39944 ft 432 kts 307°
2026-04-17 12:41 -18.82224 -51.75200 39950 ft 432 kts 307°
2026-04-17 12:42 -18.78109 -51.79832 39942 ft 433 kts 307°
2026-04-17 12:42 -18.73981 -51.84476 39950 ft 433 kts 307°
2026-04-17 12:43 -18.69856 -51.89112 39950 ft 433 kts 307°
2026-04-17 12:43 -18.65734 -51.93743 39952 ft 433 kts 307°
2026-04-17 12:44 -18.61606 -51.98375 39951 ft 433 kts 307°
2026-04-17 12:44 -18.57506 -52.02974 39943 ft 433 kts 307°
2026-04-17 12:45 -18.53372 -52.07605 39954 ft 434 kts 307°
2026-04-17 12:45 -18.49241 -52.12231 39961 ft 433 kts 307°
2026-04-17 12:46 -18.45109 -52.16855 39953 ft 433 kts 307°
2026-04-17 12:46 -18.40974 -52.21478 39961 ft 434 kts 307°
2026-04-17 12:47 -18.36836 -52.26101 39957 ft 434 kts 307°
2026-04-17 12:47 -18.32699 -52.30720 39965 ft 433 kts 307°
2026-04-17 12:48 -18.28566 -52.35330 39957 ft 433 kts 307°
2026-04-17 12:48 -18.24434 -52.39936 39964 ft 433 kts 307°
2026-04-17 12:49 -18.20301 -52.44540 39965 ft 433 kts 307°
2026-04-17 12:49 -18.16166 -52.49143 39968 ft 433 kts 307°
2026-04-17 12:50 -18.12724 -52.52971 39963 ft 434 kts 308°
2026-04-17 12:50 -18.08579 -52.57579 39963 ft 433 kts 308°
2026-04-17 12:51 -18.03767 -52.62923 39965 ft 433 kts 308°
2026-04-17 12:51 -18.00295 -52.66777 39967 ft 433 kts 308°
2026-04-17 12:52 -17.96150 -52.71375 39961 ft 433 kts 308°
2026-04-17 12:52 -17.92005 -52.75969 39967 ft 433 kts 308°
2026-04-17 12:53 -17.87863 -52.80556 39967 ft 432 kts 308°
2026-04-17 12:53 -17.83755 -52.85102 39971 ft 432 kts 308°
2026-04-17 12:54 -17.79619 -52.89676 39969 ft 432 kts 308°
2026-04-17 12:54 -17.75480 -52.94251 39967 ft 432 kts 308°
2026-04-17 12:55 -17.71340 -52.98822 39952 ft 432 kts 308°
2026-04-17 12:55 -17.67193 -53.03399 39971 ft 433 kts 308°
2026-04-17 12:56 -17.63041 -53.07978 39970 ft 433 kts 308°
2026-04-17 12:56 -17.58891 -53.12551 39967 ft 433 kts 308°
2026-04-17 12:57 -17.54739 -53.17123 39961 ft 433 kts 308°
2026-04-17 12:57 -17.50585 -53.21694 39963 ft 433 kts 308°
2026-04-17 12:58 -17.46430 -53.26263 39960 ft 434 kts 308°
2026-04-17 12:58 -17.42268 -53.30836 39961 ft 433 kts 308°
2026-04-17 12:59 -17.38107 -53.35406 39960 ft 433 kts 308°
2026-04-17 12:59 -17.33946 -53.39972 39965 ft 434 kts 308°
2026-04-17 13:00 -17.29783 -53.44538 39959 ft 433 kts 308°
2026-04-17 13:00 -17.25620 -53.49100 39953 ft 434 kts 309°
2026-04-17 13:01 -17.21472 -53.53643 39970 ft 436 kts 309°
2026-04-17 13:01 -17.17285 -53.58226 39958 ft 435 kts 309°
2026-04-17 13:02 -17.13097 -53.62806 39960 ft 435 kts 309°
2026-04-17 13:02 -17.09207 -53.67589 39942 ft 425 kts 294°
2026-04-17 13:03 -17.06311 -53.72989 39940 ft 426 kts 295°
2026-04-17 13:03 -17.03437 -53.78412 39953 ft 427 kts 295°
2026-04-17 13:04 -17.00585 -53.83854 39961 ft 427 kts 295°
2026-04-17 13:04 -16.97735 -53.89297 39962 ft 427 kts 295°
2026-04-17 13:05 -16.94883 -53.94739 39954 ft 427 kts 295°
2026-04-17 13:05 -16.92030 -54.00180 39951 ft 427 kts 295°
2026-04-17 13:06 -16.89177 -54.05614 39954 ft 426 kts 295°
2026-04-17 13:06 -16.86327 -54.11040 39955 ft 426 kts 295°
2026-04-17 13:07 -16.83474 -54.16466 39940 ft 426 kts 295°
2026-04-17 13:07 -16.80608 -54.21914 39949 ft 429 kts 295°
2026-04-17 13:08 -16.77734 -54.27372 39951 ft 428 kts 295°
2026-04-17 13:08 -16.74869 -54.32808 39942 ft 427 kts 295°
2026-04-17 13:09 -16.72005 -54.38240 39943 ft 427 kts 295°
2026-04-17 13:09 -16.69137 -54.43672 39921 ft 426 kts 295°
2026-04-17 13:09 -16.67721 -54.46353 39437 ft 421 kts 295°
2026-04-17 13:10 -16.66303 -54.49037 38694 ft 424 kts 295°
2026-04-17 13:10 -16.64870 -54.51748 37759 ft 429 kts 295°
2026-04-17 13:10 -16.63426 -54.54478 36961 ft 431 kts 296°
2026-04-17 13:10 -16.61976 -54.57219 36226 ft 432 kts 296°
2026-04-17 13:11 -16.60523 -54.59965 35495 ft 434 kts 296°
2026-04-17 13:11 -16.59061 -54.62728 34700 ft 437 kts 296°
2026-04-17 13:11 -16.57621 -54.65537 33779 ft 443 kts 296°
2026-04-17 13:11 -16.56163 -54.68392 32813 ft 448 kts 296°
2026-04-17 13:12 -16.54713 -54.71227 31981 ft 450 kts 296°
2026-04-17 13:12 -16.51759 -54.76991 30324 ft 453 kts 297°
2026-04-17 13:12 -16.50266 -54.79901 29211 ft 458 kts 297°
2026-04-17 13:13 -16.48755 -54.82848 28102 ft 463 kts 297°
2026-04-17 13:13 -16.47231 -54.85816 27056 ft 466 kts 297°
2026-04-17 13:13 -16.45702 -54.88794 26219 ft 464 kts 297°
2026-04-17 13:13 -16.44182 -54.91753 25428 ft 467 kts 297°
2026-04-17 13:14 -16.42641 -54.94752 24583 ft 471 kts 297°
2026-04-17 13:14 -16.41095 -54.97759 23782 ft 471 kts 297°
2026-04-17 13:14 -16.39548 -55.00767 22876 ft 471 kts 297°
2026-04-17 13:14 -16.38010 -55.03756 22022 ft 466 kts 297°
2026-04-17 13:15 -16.36484 -55.06720 21218 ft 462 kts 297°
2026-04-17 13:15 -16.34971 -55.09657 20436 ft 459 kts 297°
2026-04-17 13:15 -16.33470 -55.12571 19721 ft 454 kts 297°
2026-04-17 13:15 -16.31987 -55.15448 19069 ft 447 kts 297°
2026-04-17 13:16 -16.30514 -55.18304 18261 ft 447 kts 298°
2026-04-17 13:16 -16.29056 -55.21131 17588 ft 440 kts 298°
2026-04-17 13:16 -16.27620 -55.23915 16964 ft 433 kts 297°
2026-04-17 13:16 -16.26207 -55.26651 16361 ft 426 kts 297°
2026-04-17 13:17 -16.24815 -55.29348 15743 ft 421 kts 298°
2026-04-17 13:17 -16.23437 -55.32016 15101 ft 417 kts 298°
2026-04-17 13:17 -16.22073 -55.34658 14523 ft 412 kts 298°
2026-04-17 13:17 -16.20736 -55.37245 13530 ft 403 kts 298°
2026-04-17 13:18 -16.19413 -55.39804 12279 ft 400 kts 298°
2026-04-17 13:18 -16.18126 -55.42295 11868 ft 377 kts 298°
2026-04-17 13:18 -16.16930 -55.44609 11706 ft 350 kts 298°
2026-04-17 13:18 -16.15811 -55.46770 11509 ft 328 kts 298°
2026-04-17 13:19 -16.14762 -55.48798 11313 ft 309 kts 298°
2026-04-17 13:19 -16.13772 -55.50711 11139 ft 291 kts 298°
2026-04-17 13:19 -16.12838 -55.52513 10976 ft 275 kts 298°
2026-04-17 13:19 -16.11959 -55.54211 10849 ft 269 kts 298°
2026-04-17 13:20 -16.11045 -55.55976 10715 ft 278 kts 298°
2026-04-17 13:20 -16.10118 -55.57765 10556 ft 283 kts 298°
2026-04-17 13:20 -16.09193 -55.59551 10400 ft 285 kts 298°
2026-04-17 13:20 -16.08255 -55.61360 10240 ft 284 kts 299°
2026-04-17 13:21 -16.07319 -55.63165 10109 ft 284 kts 299°
2026-04-17 13:21 -16.06383 -55.64969 9943 ft 283 kts 299°
2026-04-17 13:21 -16.05446 -55.66776 9654 ft 285 kts 299°
2026-04-17 13:21 -16.04505 -55.68590 9293 ft 285 kts 299°
2026-04-17 13:22 -16.03568 -55.70395 8968 ft 283 kts 299°
2026-04-17 13:22 -16.02634 -55.72192 8658 ft 281 kts 299°
2026-04-17 13:22 -16.01709 -55.73975 8355 ft 280 kts 299°
2026-04-17 13:22 -16.00787 -55.75748 8052 ft 278 kts 299°
2026-04-17 13:23 -15.99871 -55.77512 7756 ft 277 kts 299°
2026-04-17 13:23 -15.98960 -55.79265 7458 ft 275 kts 299°
2026-04-17 13:23 -15.98052 -55.81014 7162 ft 274 kts 300°
2026-04-17 13:23 -15.97147 -55.82753 6860 ft 273 kts 300°
2026-04-17 13:24 -15.96245 -55.84488 6560 ft 272 kts 300°
2026-04-17 13:24 -15.95346 -55.86216 6250 ft 272 kts 300°
2026-04-17 13:24 -15.94449 -55.87940 5941 ft 271 kts 300°
2026-04-17 13:24 -15.93554 -55.89659 5632 ft 270 kts 300°
2026-04-17 13:25 -15.92663 -55.91372 5333 ft 269 kts 300°
2026-04-17 13:25 -15.91776 -55.93075 5050 ft 267 kts 300°
2026-04-17 13:25 -15.90899 -55.94762 4916 ft 263 kts 300°
2026-04-17 13:25 -15.90037 -55.96415 4724 ft 257 kts 300°
2026-04-17 13:26 -15.89201 -55.98018 4598 ft 248 kts 300°
2026-04-17 13:26 -15.88164 -55.99369 4429 ft 235 kts 327°
2026-04-17 13:26 -15.86772 -56.00175 4337 ft 224 kts 334°
2026-04-17 13:26 -15.85435 -56.00911 4280 ft 212 kts 334°
2026-04-17 13:27 -15.84147 -56.01602 4136 ft 204 kts 334°
2026-04-17 13:27 -15.82910 -56.02262 3988 ft 197 kts 334°
2026-04-17 13:27 -15.81703 -56.02907 3789 ft 192 kts 334°
2026-04-17 13:27 -15.80536 -56.03530 3575 ft 186 kts 334°
2026-04-17 13:28 -15.79403 -56.04136 3353 ft 181 kts 334°
2026-04-17 13:28 -15.78302 -56.04725 3128 ft 176 kts 334°
2026-04-17 13:28 -15.77222 -56.05302 2904 ft 172 kts 334°
2026-04-17 13:28 -15.76179 -56.05859 2726 ft 168 kts 334°
2026-04-17 13:29 -15.75164 -56.06402 2516 ft 160 kts 334°
2026-04-17 13:29 -15.74197 -56.06919 2324 ft 153 kts 334°
2026-04-17 13:29 -15.73260 -56.07419 2119 ft 150 kts 334°
2026-04-17 13:29 -15.72337 -56.07912 1919 ft 148 kts 334°
2026-04-17 13:30 -15.71424 -56.08400 1726 ft 147 kts 333°
2026-04-17 13:30 -15.70513 -56.08886 1535 ft 147 kts 334°
2026-04-17 13:30 -15.69610 -56.09367 1343 ft 145 kts 334°
2026-04-17 13:30 -15.68716 -56.09845 1166 ft 144 kts 334°
2026-04-17 13:31 -15.67829 -56.10323 1005 ft 143 kts 334°
2026-04-17 13:31 -15.66963 -56.10786 798 ft 140 kts 332°
2026-04-17 13:31 -15.66094 -56.11247 618 ft 138 kts 334°
2026-04-17 13:31 -15.65349 -56.11640 602 ft 92 kts 333°
2026-04-17 13:32 -15.64939 -56.11857 599 ft 60 kts 332°
2026-04-17 13:32 -15.64630 -56.12021 598 ft 42 kts 333°
2026-04-17 13:32 -15.64458 -56.12114 599 ft 22 kts 323°
2026-04-17 13:32 -15.64403 -56.12174 599 ft 1 kts
2026-04-17 13:33 -15.64397 -56.12164 599 ft 4 kts 71°
2026-04-17 13:33 -15.64438 -56.12123 598 ft 14 kts 153°
2026-04-17 13:33 -15.64553 -56.12063 598 ft 22 kts 153°
2026-04-17 13:33 -15.64703 -56.11984 598 ft 26 kts 153°
2026-04-17 13:34 -15.64872 -56.11893 598 ft 29 kts 152°
2026-04-17 13:34 -15.65015 -56.11818 600 ft 14 kts 153°
2026-04-17 13:34 -15.65063 -56.11831 600 ft 8 kts 238°
2026-04-17 13:34 -15.65086 -56.11879 600 ft 4 kts 244°
2026-04-17 13:35 -15.65093 -56.11899 599 ft 0 kts 274°
2026-04-17 13:35 -15.65089 -56.11906 599 ft 1 kts 313°
2026-04-17 13:35 -15.65073 -56.11917 599 ft 5 kts 319°
2026-04-17 13:35 -15.65068 -56.11928 599 ft 1 kts 278°
2026-04-17 13:36 -15.65072 -56.11948 599 ft 3 kts 249°
2026-04-17 13:36 -15.65079 -56.11960 599 ft 0 kts 240°